| time (UTC) | temp C | wind direction | speed KPH | gust KPH | rain 1hr cm | rain 24hr cm | rain mn cm | humidity % | barometer mb |
| 20260507113412 | 24 | 128 | 0.0 | 0.0 | 0.00 | 0.03 | 0.03 | 74 | 1016.8 |
| 20260507112909 | 24 | 103 | 0.0 | 0.0 | 0.00 | 0.03 | 0.03 | 74 | 1016.5 |
| 20260507112406 | 24 | 91 | 0.0 | 0.0 | 0.00 | 0.03 | 0.03 | 73 | 1016.5 |
| 20260507111904 | 24 | 48 | 0.0 | 1.6 | 0.00 | 0.03 | 0.03 | 73 | 1016.5 |
| 20260507111400 | 24 | 53 | 1.6 | 3.2 | 0.00 | 0.03 | 0.03 | 73 | 1016.5 |
| 20260507110856 | 24 | 55 | 1.6 | 3.2 | 0.00 | 0.03 | 0.03 | 73 | 1016.3 |
| 20260507110352 | 24 | 90 | 1.6 | 1.6 | 0.00 | 0.03 | 0.03 | 74 | 1016.3 |
| 20260507105850 | 24 | 89 | 0.0 | 0.0 | 0.00 | 0.03 | 0.03 | 74 | 1016.5 |
| 20260507105346 | 24 | 63 | 1.6 | 3.2 | 0.00 | 0.03 | 0.03 | 74 | 1016.1 |
| 20260507104843 | 24 | 60 | 1.6 | 1.6 | 0.00 | 0.03 | 0.03 | 75 | 1016.4 |
| 20260507104340 | 24 | 65 | 0.0 | 1.6 | 0.00 | 0.03 | 0.03 | 75 | 1016.2 |
| 20260507103835 | 24 | 98 | 0.0 | 0.0 | 0.00 | 0.03 | 0.03 | 75 | 1016.1 |
| 20260507103332 | 24 | 30 | 1.6 | 1.6 | 0.00 | 0.03 | 0.03 | 75 | 1016.0 |
| 20260507102829 | 24 | 85 | 1.6 | 1.6 | 0.00 | 0.03 | 0.03 | 75 | 1016.0 |
| 20260507102325 | 24 | 97 | 1.6 | 3.2 | 0.00 | 0.03 | 0.03 | 74 | 1016.2 |
| 20260507101822 | 24 | 85 | 0.0 | 1.6 | 0.00 | 0.03 | 0.03 | 74 | 1016.0 |
| 20260507101321 | 25 | 74 | 1.6 | 1.6 | 0.00 | 0.03 | 0.03 | 74 | 1015.8 |
| 20260507100819 | 25 | 80 | 0.0 | 3.2 | 0.00 | 0.03 | 0.03 | 73 | 1015.9 |
| 20260507100317 | 25 | 68 | 1.6 | 3.2 | 0.00 | 0.03 | 0.03 | 73 | 1015.9 |
| 20260507095815 | 25 | 105 | 0.0 | 3.2 | 0.00 | 0.03 | 0.03 | 72 | 1015.9 |
| 20260507095311 | 25 | 94 | 1.6 | 4.8 | 0.00 | 0.03 | 0.03 | 72 | 1015.8 |
| 20260507094808 | 25 | 47 | 1.6 | 3.2 | 0.00 | 0.03 | 0.03 | 72 | 1016.0 |
| 20260507094305 | 25 | 105 | 1.6 | 1.6 | 0.00 | 0.03 | 0.03 | 73 | 1015.7 |
| 20260507093802 | 25 | 96 | 3.2 | 3.2 | 0.00 | 0.03 | 0.03 | 73 | 1015.8 |
| 20260507093300 | 25 | 88 | 0.0 | 4.8 | 0.00 | 0.03 | 0.03 | 72 | 1015.6 |
| 20260507092758 | 25 | 60 | 3.2 | 4.8 | 0.00 | 0.03 | 0.03 | 72 | 1015.7 |
| 20260507092254 | 25 | 56 | 0.0 | 4.8 | 0.00 | 0.03 | 0.03 | 72 | 1015.6 |
| 20260507091751 | 25 | 41 | 1.6 | 3.2 | 0.00 | 0.03 | 0.03 | 72 | 1015.6 |
| 20260507091248 | 26 | 26 | 3.2 | 6.4 | 0.00 | 0.03 | 0.03 | 72 | 1015.5 |
| 20260507090747 | 26 | 48 | 3.2 | 4.8 | 0.00 | 0.03 | 0.03 | 71 | 1015.5 |
| 20260507090244 | 26 | 38 | 3.2 | 4.8 | 0.00 | 0.03 | 0.03 | 70 | 1015.4 |
| 20260507085741 | 26 | 90 | 0.0 | 0.0 | 0.00 | 0.03 | 0.03 | 67 | 1015.2 |
| 20260507085238 | 26 | 102 | 0.0 | 0.0 | 0.00 | 0.03 | 0.03 | 66 | 1015.2 |
| 20260507084735 | 26 | 97 | 0.0 | 0.0 | 0.00 | 0.03 | 0.03 | 66 | 1015.2 |
| 20260507084231 | 26 | 65 | 0.0 | 0.0 | 0.00 | 0.03 | 0.03 | 67 | 1015.3 |
| 20260507083729 | 26 | 96 | 0.0 | 1.6 | 0.00 | 0.03 | 0.03 | 67 | 1015.4 |
| 20260507083225 | 25 | 99 | 0.0 | 3.2 | 0.00 | 0.03 | 0.03 | 67 | 1015.3 |
| 20260507082722 | 25 | 124 | 0.0 | 3.2 | 0.00 | 0.03 | 0.03 | 68 | 1015.2 |
| 20260507082218 | 25 | 102 | 1.6 | 4.8 | 0.00 | 0.03 | 0.03 | 68 | 1015.5 |
| 20260507081715 | 25 | 103 | 0.0 | 1.6 | 0.00 | 0.03 | 0.03 | 66 | 1015.3 |
| 20260507081211 | 25 | 103 | 0.0 | 1.6 | 0.00 | 0.03 | 0.03 | 66 | 1015.4 |
| 20260507080707 | 25 | 104 | 0.0 | 1.6 | 0.00 | 0.03 | 0.03 | 66 | 1015.3 |
| 20260507080204 | 26 | 126 | 3.2 | 4.8 | 0.00 | 0.03 | 0.03 | 66 | 1015.2 |
| 20260507075659 | 26 | 106 | 1.6 | 4.8 | 0.00 | 0.03 | 0.03 | 67 | 1015.2 |
| 20260507075155 | 26 | 159 | 1.6 | 3.2 | 0.00 | 0.03 | 0.03 | 66 | 1015.2 |
| 20260507074652 | 26 | 115 | 3.2 | 4.8 | 0.00 | 0.03 | 0.03 | 64 | 1015.4 |
| 20260507074150 | 26 | 96 | 0.0 | 1.6 | 0.00 | 0.03 | 0.03 | 64 | 1015.5 |
| 20260507073646 | 27 | 96 | 3.2 | 3.2 | 0.00 | 0.03 | 0.03 | 63 | 1015.5 |
| 20260507073142 | 27 | 140 | 0.0 | 1.6 | 0.00 | 0.03 | 0.03 | 62 | 1015.5 |
| 20260507072641 | 27 | 147 | 0.0 | 3.2 | 0.00 | 0.03 | 0.03 | 63 | 1015.7 |
| 20260507072138 | 27 | 114 | 0.0 | 1.6 | 0.00 | 0.03 | 0.03 | 65 | 1015.5 |
| 20260507071636 | 26 | 145 | 0.0 | 3.2 | 0.00 | 0.03 | 0.03 | 67 | 1015.6 |
| 20260507071131 | 26 | 117 | 3.2 | 6.4 | 0.00 | 0.03 | 0.03 | 68 | 1015.5 |
| 20260507070628 | 27 | 113 | 6.4 | 6.4 | 0.00 | 0.03 | 0.03 | 67 | 1015.4 |
| 20260507070126 | 27 | 123 | 0.0 | 1.6 | 0.00 | 0.03 | 0.03 | 68 | 1015.5 |
| 20260507065622 | 27 | 126 | 0.0 | 6.4 | 0.00 | 0.03 | 0.03 | 66 | 1015.6 |
| 20260507065119 | 27 | 61 | 0.0 | 1.6 | 0.00 | 0.03 | 0.03 | 63 | 1015.5 |
| 20260507064616 | 28 | 127 | 0.0 | 3.2 | 0.00 | 0.03 | 0.03 | 65 | 1015.4 |
| 20260507064115 | 28 | 213 | 1.6 | 1.6 | 0.00 | 0.03 | 0.03 | 63 | 1015.7 |
| 20260507063612 | 28 | 95 | 0.0 | 1.6 | 0.00 | 0.03 | 0.03 | 63 | 1015.5 |
| 20260507063109 | 28 | 83 | 0.0 | 1.6 | 0.00 | 0.03 | 0.03 | 64 | 1015.4 |
| 20260507062605 | 28 | 115 | 0.0 | 3.2 | 0.00 | 0.03 | 0.03 | 64 | 1015.4 |
| 20260507062103 | 28 | 143 | 1.6 | 3.2 | 0.00 | 0.03 | 0.03 | 64 | 1015.5 |
| 20260507061601 | 28 | 149 | 3.2 | 3.2 | 0.00 | 0.03 | 0.03 | 64 | 1015.6 |
| 20260507061059 | 28 | 213 | 0.0 | 3.2 | 0.00 | 0.03 | 0.03 | 64 | 1015.5 |
| 20260507060557 | 28 | 142 | 0.0 | 1.6 | 0.00 | 0.03 | 0.03 | 63 | 1015.6 |
| 20260507060053 | 28 | 116 | 1.6 | 3.2 | 0.00 | 0.03 | 0.03 | 64 | 1015.5 |
| 20260507055548 | 27 | 114 | 0.0 | 3.2 | 0.00 | 0.03 | 0.03 | 64 | 1015.7 |
| 20260507055044 | 27 | 107 | 1.6 | 6.4 | 0.00 | 0.03 | 0.03 | 66 | 1015.6 |
| 20260507054540 | 28 | 106 | 1.6 | 6.4 | 0.00 | 0.03 | 0.03 | 63 | 1015.7 |
| 20260507054038 | 29 | 160 | 1.6 | 3.2 | 0.00 | 0.03 | 0.03 | 60 | 1015.7 |
| 20260507053536 | 30 | 124 | 0.0 | 3.2 | 0.00 | 0.03 | 0.03 | 58 | 1015.6 |
| 20260507053034 | 30 | 125 | 0.0 | 1.6 | 0.00 | 0.03 | 0.03 | 56 | 1015.8 |
| 20260507052531 | 30 | 79 | 0.0 | 3.2 | 0.00 | 0.03 | 0.03 | 58 | 1015.8 |
| 20260507052028 | 29 | 221 | 0.0 | 1.6 | 0.00 | 0.03 | 0.03 | 61 | 1015.9 |
| 20260507051526 | 28 | 137 | 1.6 | 3.2 | 0.00 | 0.03 | 0.03 | 63 | 1015.9 |
| 20260507051022 | 28 | 119 | 0.0 | 1.6 | 0.00 | 0.03 | 0.03 | 63 | 1016.0 |
| 20260507050519 | 27 | 200 | 1.6 | 3.2 | 0.00 | 0.03 | 0.03 | 66 | 1016.1 |
| 20260507050015 | 27 | 98 | 0.0 | 9.7 | 0.00 | 0.03 | 0.03 | 67 | 1015.9 |
| 20260507045512 | 28 | 113 | 6.4 | 11.3 | 0.00 | 0.03 | 0.03 | 63 | 1016.1 |
| 20260507045009 | 30 | 124 | 0.0 | 1.6 | 0.00 | 0.03 | 0.03 | 60 | 1016.2 |
| 20260507044506 | 30 | 87 | 1.6 | 6.4 | 0.00 | 0.03 | 0.03 | 60 | 1016.2 |
| 20260507044002 | 30 | 80 | 0.0 | 1.6 | 0.00 | 0.03 | 0.03 | 58 | 1016.1 |
| 20260507043459 | 30 | 52 | 1.6 | 1.6 | 0.00 | 0.03 | 0.03 | 54 | 1016.1 |
| 20260507042955 | 30 | 82 | 0.0 | 1.6 | 0.00 | 0.03 | 0.03 | 57 | 1016.2 |
| 20260507042452 | 30 | 101 | 0.0 | 1.6 | 0.00 | 0.03 | 0.03 | 61 | 1016.3 |
| 20260507041947 | 30 | 103 | 0.0 | 1.6 | 0.00 | 0.03 | 0.03 | 61 | 1016.3 |
| 20260507041444 | 30 | 109 | 0.0 | 1.6 | 0.00 | 0.03 | 0.03 | 62 | 1016.4 |
| 20260507040942 | 29 | 130 | 1.6 | 1.6 | 0.00 | 0.03 | 0.03 | 62 | 1016.4 |
| 20260507040437 | 28 | 69 | 0.0 | 1.6 | 0.00 | 0.03 | 0.03 | 63 | 1016.2 |
| 20260507035933 | 28 | 83 | 0.0 | 1.6 | 0.00 | 0.03 | 0.03 | 63 | 1016.5 |
| 20260507035430 | 29 | 84 | 0.0 | 4.8 | 0.00 | 0.03 | 0.03 | 63 | 1016.5 |
| 20260507034927 | 29 | 18 | 1.6 | 1.6 | 0.00 | 0.03 | 0.03 | 64 | 1016.8 |
| 20260507034424 | 28 | 31 | 0.0 | 3.2 | 0.00 | 0.03 | 0.03 | 63 | 1016.7 |
| 20260507033922 | 28 | 85 | 1.6 | 1.6 | 0.00 | 0.03 | 0.03 | 63 | 1016.9 |
| 20260507033419 | 27 | 145 | 1.6 | 1.6 | 0.00 | 0.03 | 0.03 | 65 | 1016.8 |
| 20260507032916 | 28 | 115 | 4.8 | 4.8 | 0.00 | 0.03 | 0.03 | 63 | 1016.9 |
| 20260507032413 | 28 | 136 | 1.6 | 1.6 | 0.00 | 0.03 | 0.03 | 65 | 1017.0 |
| 20260507031909 | 28 | 107 | 0.0 | 1.6 | 0.00 | 0.03 | 0.03 | 62 | 1016.9 |
| 20260507031406 | 28 | 132 | 1.6 | 1.6 | 0.00 | 0.03 | 0.03 | 63 | 1017.0 |
| 20260507030903 | 28 | 69 | 1.6 | 3.2 | 0.00 | 0.03 | 0.03 | 64 | 1017.4 |
| 20260507030400 | 27 | 55 | 1.6 | 1.6 | 0.00 | 0.03 | 0.03 | 63 | 1017.1 |
| 20260507025857 | 28 | 67 | 0.0 | 1.6 | 0.00 | 0.03 | 0.03 | 64 | 1017.1 |
| 20260507025354 | 28 | 72 | 1.6 | 3.2 | 0.00 | 0.03 | 0.03 | 67 | 1017.2 |
| 20260507024852 | 27 | 90 | 0.0 | 3.2 | 0.00 | 0.03 | 0.03 | 67 | 1017.2 |
| 20260507024349 | 27 | 97 | 0.0 | 3.2 | 0.00 | 0.03 | 0.03 | 67 | 1017.4 |
| 20260507023844 | 27 | 74 | 0.0 | 1.6 | 0.00 | 0.03 | 0.03 | 67 | 1017.2 |
| 20260507023342 | 26 | 88 | 0.0 | 1.6 | 0.00 | 0.03 | 0.03 | 68 | 1017.4 |
| 20260507022839 | 26 | 48 | 0.0 | 1.6 | 0.00 | 0.03 | 0.03 | 66 | 1017.4 |
| 20260507022335 | 26 | 68 | 0.0 | 1.6 | 0.00 | 0.03 | 0.03 | 69 | 1017.5 |
| 20260507021831 | 26 | 298 | 0.0 | 3.2 | 0.00 | 0.03 | 0.03 | 70 | 1017.3 |
| 20260507021327 | 26 | 287 | 0.0 | 3.2 | 0.00 | 0.03 | 0.03 | 69 | 1017.3 |
| 20260507020825 | 25 | 25 | 1.6 | 3.2 | 0.00 | 0.03 | 0.03 | 73 | 1017.6 |
| 20260507020321 | 25 | 310 | 0.0 | 6.4 | 0.00 | 0.03 | 0.03 | 76 | 1017.5 |
| 20260507015819 | 25 | 130 | 4.8 | 9.7 | 0.00 | 0.03 | 0.03 | 73 | 1017.5 |
| 20260507015316 | 25 | 131 | 4.8 | 6.4 | 0.00 | 0.03 | 0.03 | 71 | 1017.5 |
| 20260507014813 | 26 | 109 | 4.8 | 6.4 | 0.00 | 0.03 | 0.03 | 71 | 1017.4 |
| 20260507014309 | 27 | 126 | 4.8 | 9.7 | 0.00 | 0.03 | 0.03 | 68 | 1017.3 |
| 20260507013806 | 28 | 51 | 1.6 | 3.2 | 0.00 | 0.03 | 0.03 | 66 | 1017.4 |
| 20260507013303 | 28 | 69 | 0.0 | 1.6 | 0.00 | 0.03 | 0.03 | 66 | 1017.3 |
| 20260507012801 | 27 | 108 | 1.6 | 1.6 | 0.00 | 0.03 | 0.03 | 69 | 1017.5 |
| 20260507012256 | 27 | 110 | 1.6 | 1.6 | 0.00 | 0.03 | 0.03 | 68 | 1017.5 |
| 20260507011754 | 27 | 40 | 0.0 | 0.0 | 0.00 | 0.03 | 0.03 | 71 | 1017.3 |
| 20260507011250 | 27 | 105 | 0.0 | 1.6 | 0.00 | 0.03 | 0.03 | 69 | 1017.5 |
| 20260507010750 | 27 | 90 | 0.0 | 1.6 | 0.00 | 0.03 | 0.03 | 70 | 1017.5 |
| 20260507010246 | 27 | 62 | 0.0 | 1.6 | 0.00 | 0.03 | 0.03 | 72 | 1017.6 |
| 20260507005744 | 27 | 73 | 0.0 | 1.6 | 0.00 | 0.03 | 0.03 | 73 | 1017.8 |
| 20260507005240 | 26 | 106 | 1.6 | 1.6 | 0.00 | 0.03 | 0.03 | 73 | 1017.5 |
| 20260507004736 | 26 | 287 | 0.0 | 3.2 | 0.00 | 0.03 | 0.03 | 74 | 1017.6 |
| 20260507004235 | 26 | 326 | 0.0 | 1.6 | 0.00 | 0.03 | 0.03 | 74 | 1017.8 |
| 20260507003730 | 26 | 88 | 3.2 | 3.2 | 0.00 | 0.03 | 0.03 | 73 | 1018.1 |
| 20260507003226 | 26 | 300 | 1.6 | 3.2 | 0.00 | 0.03 | 0.03 | 74 | 1017.9 |
| 20260507002722 | 26 | 67 | 1.6 | 4.8 | 0.00 | 0.03 | 0.03 | 75 | 1017.9 |
| 20260507002218 | 26 | 51 | 0.0 | 1.6 | 0.00 | 0.03 | 0.03 | 75 | 1017.9 |
| 20260507001715 | 26 | 55 | 1.6 | 1.6 | 0.00 | 0.03 | 0.03 | 76 | 1018.1 |
| 20260507001212 | 26 | 44 | 1.6 | 1.6 | 0.00 | 0.03 | 0.03 | 75 | 1017.9 |
| 20260507000708 | 26 | 70 | 1.6 | 1.6 | 0.00 | 0.03 | 0.03 | 75 | 1018.0 |
| 20260507000205 | 26 | 83 | 1.6 | 3.2 | 0.00 | 0.03 | 0.03 | 75 | 1017.7 |
| 20260506235701 | 26 | 80 | 0.0 | 1.6 | 0.00 | 0.03 | 0.03 | 75 | 1017.6 |
| 20260506235157 | 26 | 95 | 0.0 | 0.0 | 0.00 | 0.03 | 0.03 | 77 | 1017.8 |
| 20260506234654 | 26 | 90 | 0.0 | 1.6 | 0.00 | 0.03 | 0.03 | 77 | 1017.6 |
| 20260506234151 | 26 | 81 | 0.0 | 0.0 | 0.00 | 0.03 | 0.03 | 75 | 1017.7 |
| 20260506233648 | 26 | 76 | 0.0 | 1.6 | 0.00 | 0.03 | 0.03 | 76 | 1017.6 |
| 20260506233145 | 26 | 69 | 0.0 | 1.6 | 0.00 | 0.03 | 0.03 | 77 | 1017.9 |
| 20260506232641 | 25 | 80 | 0.0 | 3.2 | 0.00 | 0.03 | 0.03 | 79 | 1017.7 |
| 20260506232137 | 25 | 83 | 1.6 | 3.2 | 0.00 | 0.03 | 0.03 | 78 | 1017.7 |
| 20260506231634 | 26 | 45 | 0.0 | 1.6 | 0.00 | 0.03 | 0.03 | 78 | 1017.7 |
| 20260506231132 | 26 | 86 | 0.0 | 0.0 | 0.00 | 0.03 | 0.03 | 80 | 1017.6 |
| 20260506230629 | 25 | 86 | 0.0 | 1.6 | 0.00 | 0.03 | 0.03 | 83 | 1017.8 |
| 20260506230126 | 25 | 94 | 0.0 | 0.0 | 0.00 | 0.03 | 0.03 | 85 | 1017.6 |
| 20260506225622 | 24 | 87 | 0.0 | 0.0 | 0.00 | 0.03 | 0.03 | 87 | 1017.6 |
| 20260506225119 | 24 | 91 | 0.0 | 0.0 | 0.00 | 0.03 | 0.03 | 87 | 1017.3 |
| 20260506224616 | 23 | 73 | 0.0 | 0.0 | 0.00 | 0.03 | 0.03 | 91 | 1017.2 |
| 20260506224112 | 22 | 102 | 0.0 | 0.0 | 0.00 | 0.03 | 0.03 | 93 | 1017.2 |
| 20260506223608 | 22 | 95 | 0.0 | 0.0 | 0.00 | 0.03 | 0.03 | 92 | 1017.0 |
| 20260506223105 | 22 | 89 | 0.0 | 0.0 | 0.00 | 0.03 | 0.03 | 94 | 1017.0 |
| 20260506222602 | 21 | 94 | 0.0 | 0.0 | 0.00 | 0.03 | 0.03 | 94 | 1017.0 |
| 20260506222058 | 21 | 89 | 0.0 | 1.6 | 0.00 | 0.03 | 0.03 | 94 | 1016.9 |
| 20260506221556 | 22 | 84 | 0.0 | 0.0 | 0.00 | 0.03 | 0.03 | 95 | 1016.7 |
| 20260506221054 | 21 | 83 | 0.0 | 0.0 | 0.00 | 0.03 | 0.03 | 96 | 1016.8 |
| 20260506220549 | 21 | 89 | 0.0 | 0.0 | 0.00 | 0.03 | 0.03 | 96 | 1017.2 |
| 20260506220045 | 21 | 88 | 0.0 | 0.0 | 0.00 | 0.03 | 0.03 | 97 | 1017.0 |
| 20260506215542 | 21 | 86 | 0.0 | 0.0 | 0.00 | 0.03 | 0.03 | 97 | 1016.8 |
| 20260506215038 | 21 | 86 | 0.0 | 0.0 | 0.00 | 0.03 | 0.03 | 97 | 1017.0 |
| 20260506214535 | 21 | 89 | 0.0 | 0.0 | 0.00 | 0.03 | 0.03 | 96 | 1017.0 |
| 20260506214032 | 20 | 90 | 0.0 | 0.0 | 0.00 | 0.03 | 0.03 | 97 | 1016.9 |
| 20260506213530 | 19 | 91 | 0.0 | 0.0 | 0.00 | 0.03 | 0.03 | 97 | 1016.8 |
| 20260506213027 | 18 | 88 | 0.0 | 0.0 | 0.00 | 0.03 | 0.03 | 97 | 1016.5 |
| 20260506212523 | 18 | 95 | 0.0 | 0.0 | 0.00 | 0.03 | 0.03 | 97 | 1016.6 |
| 20260506212019 | 18 | 95 | 0.0 | 0.0 | 0.00 | 0.03 | 0.03 | 97 | 1016.4 |
| 20260506211514 | 17 | 79 | 0.0 | 0.0 | 0.00 | 0.03 | 0.03 | 97 | 1016.3 |
| 20260506211012 | 17 | 90 | 0.0 | 0.0 | 0.00 | 0.03 | 0.03 | 97 | 1016.5 |
| 20260506210508 | 17 | 97 | 0.0 | 0.0 | 0.00 | 0.03 | 0.03 | 97 | 1016.3 |
| 20260506210005 | 17 | 95 | 0.0 | 0.0 | 0.00 | 0.03 | 0.03 | 97 | 1016.2 |
| 20260506205502 | 17 | 92 | 0.0 | 0.0 | 0.00 | 0.03 | 0.03 | 97 | 1016.1 |
| 20260506204957 | 17 | 92 | 0.0 | 0.0 | 0.00 | 0.03 | 0.03 | 97 | 1016.0 |
| 20260506204455 | 17 | 89 | 0.0 | 0.0 | 0.00 | 0.03 | 0.03 | 97 | 1016.1 |
| 20260506203947 | 17 | 91 | 0.0 | 0.0 | 0.00 | 0.03 | 0.03 | 96 | 1016.1 |
| 20260506203444 | 18 | 97 | 0.0 | 0.0 | 0.00 | 0.03 | 0.03 | 97 | 1016.1 |
| 20260506202941 | 17 | 92 | 0.0 | 0.0 | 0.00 | 0.03 | 0.03 | 97 | 1015.8 |
| 20260506202439 | 17 | 96 | 0.0 | 0.0 | 0.00 | 0.03 | 0.03 | 96 | 1015.7 |
| 20260506201935 | 17 | 95 | 0.0 | 0.0 | 0.00 | 0.03 | 0.03 | 96 | 1015.9 |
| 20260506201433 | 17 | 80 | 0.0 | 0.0 | 0.00 | 0.03 | 0.03 | 96 | 1015.8 |
| 20260506200929 | 17 | 101 | 0.0 | 0.0 | 0.00 | 0.03 | 0.03 | 96 | 1016.1 |
| 20260506200425 | 17 | 95 | 0.0 | 0.0 | 0.00 | 0.03 | 0.03 | 96 | 1016.0 |
| 20260506195922 | 17 | 93 | 0.0 | 0.0 | 0.00 | 0.03 | 0.03 | 96 | 1016.0 |
| 20260506195419 | 17 | 93 | 0.0 | 0.0 | 0.00 | 0.03 | 0.03 | 96 | 1015.9 |
| 20260506194915 | 17 | 96 | 0.0 | 0.0 | 0.00 | 0.03 | 0.03 | 96 | 1016.1 |
| 20260506194412 | 17 | 94 | 0.0 | 0.0 | 0.00 | 0.03 | 0.03 | 96 | 1016.0 |
| 20260506193909 | 17 | 100 | 0.0 | 0.0 | 0.00 | 0.03 | 0.03 | 96 | 1015.9 |
| 20260506193406 | 17 | 90 | 0.0 | 0.0 | 0.00 | 0.03 | 0.03 | 96 | 1016.0 |
| 20260506192902 | 17 | 91 | 0.0 | 0.0 | 0.00 | 0.03 | 0.03 | 96 | 1016.0 |
| 20260506192359 | 17 | 94 | 0.0 | 0.0 | 0.00 | 0.03 | 0.03 | 96 | 1015.9 |
| 20260506191856 | 17 | 95 | 0.0 | 0.0 | 0.00 | 0.03 | 0.03 | 96 | 1016.0 |
| 20260506191353 | 17 | 89 | 0.0 | 0.0 | 0.00 | 0.03 | 0.03 | 96 | 1015.9 |
| 20260506190850 | 17 | 93 | 0.0 | 0.0 | 0.00 | 0.03 | 0.03 | 96 | 1015.9 |
| 20260506190346 | 17 | 94 | 0.0 | 0.0 | 0.00 | 0.03 | 0.03 | 96 | 1016.1 |
| 20260506185843 | 17 | 100 | 0.0 | 0.0 | 0.00 | 0.03 | 0.03 | 96 | 1016.0 |
| 20260506185340 | 18 | 100 | 0.0 | 0.0 | 0.00 | 0.03 | 0.03 | 96 | 1015.9 |
| 20260506184836 | 18 | 87 | 0.0 | 0.0 | 0.00 | 0.03 | 0.03 | 96 | 1016.0 |
| 20260506184334 | 18 | 95 | 0.0 | 0.0 | 0.00 | 0.03 | 0.03 | 96 | 1016.0 |
| 20260506183831 | 18 | 92 | 0.0 | 0.0 | 0.00 | 0.03 | 0.03 | 96 | 1016.0 |
| 20260506183326 | 18 | 88 | 0.0 | 0.0 | 0.00 | 0.03 | 0.03 | 96 | 1016.2 |
| 20260506182824 | 18 | 93 | 0.0 | 0.0 | 0.00 | 0.03 | 0.03 | 96 | 1016.0 |
| 20260506182321 | 18 | 100 | 0.0 | 0.0 | 0.00 | 0.03 | 0.03 | 96 | 1016.2 |
| 20260506181819 | 18 | 89 | 0.0 | 0.0 | 0.00 | 0.03 | 0.03 | 96 | 1016.1 |
| 20260506181316 | 18 | 82 | 0.0 | 0.0 | 0.00 | 0.03 | 0.03 | 96 | 1016.3 |
| 20260506180813 | 18 | 86 | 0.0 | 0.0 | 0.13 | 0.03 | 0.03 | 95 | 1016.6 |
| 20260506180309 | 18 | 79 | 0.0 | 0.0 | 0.00 | 0.00 | 0.00 | 95 | 1016.6 |
| 20260506175806 | 18 | 95 | 0.0 | 0.0 | 0.00 | 0.00 | 0.00 | 95 | 1016.6 |
| 20260506175305 | 18 | 99 | 0.0 | 0.0 | 0.00 | 0.00 | 0.00 | 95 | 1016.4 |
| 20260506174800 | 18 | 103 | 0.0 | 0.0 | 0.00 | 0.00 | 0.00 | 95 | 1016.5 |
| 20260506174257 | 18 | 84 | 0.0 | 0.0 | 0.00 | 0.00 | 0.00 | 95 | 1016.5 |
| 20260506173754 | 18 | 83 | 0.0 | 0.0 | 0.00 | 0.00 | 0.00 | 95 | 1016.7 |
| 20260506173251 | 18 | 96 | 0.0 | 0.0 | 0.00 | 0.00 | 0.00 | 95 | 1016.6 |
| 20260506172748 | 18 | 87 | 0.0 | 0.0 | 0.00 | 0.00 | 0.00 | 95 | 1016.7 |
| 20260506172244 | 18 | 59 | 0.0 | 0.0 | 0.00 | 0.00 | 0.00 | 95 | 1016.6 |
| 20260506171742 | 18 | 95 | 0.0 | 0.0 | 0.00 | 0.00 | 0.00 | 95 | 1016.7 |
| 20260506171239 | 18 | 98 | 0.0 | 0.0 | 0.00 | 0.00 | 0.00 | 95 | 1016.7 |
| 20260506170737 | 18 | 97 | 0.0 | 0.0 | 0.00 | 0.00 | 0.00 | 95 | 1016.7 |
| 20260506170233 | 18 | 108 | 0.0 | 0.0 | 0.00 | 0.00 | 0.00 | 95 | 1016.9 |
| 20260506165732 | 18 | 98 | 0.0 | 0.0 | 0.00 | 0.00 | 0.00 | 94 | 1016.8 |
| 20260506165228 | 18 | 99 | 0.0 | 0.0 | 0.00 | 0.00 | 0.00 | 94 | 1017.1 |
| 20260506164726 | 18 | 85 | 0.0 | 0.0 | 0.00 | 0.00 | 0.00 | 94 | 1017.0 |
| 20260506164222 | 18 | 93 | 0.0 | 0.0 | 0.00 | 0.00 | 0.00 | 94 | 1017.2 |
| 20260506163719 | 18 | 108 | 0.0 | 0.0 | 0.00 | 0.00 | 0.00 | 94 | 1017.1 |
| 20260506163214 | 18 | 92 | 0.0 | 0.0 | 0.00 | 0.00 | 0.00 | 94 | 1017.2 |
| 20260506162710 | 18 | 77 | 0.0 | 0.0 | 0.00 | 0.00 | 0.00 | 94 | 1017.2 |
| 20260506162208 | 18 | 84 | 0.0 | 1.6 | 0.00 | 0.00 | 0.00 | 94 | 1017.3 |
| 20260506161705 | 18 | 81 | 0.0 | 0.0 | 0.00 | 0.00 | 0.00 | 94 | 1017.4 |
| 20260506161202 | 18 | 92 | 0.0 | 0.0 | 0.00 | 0.00 | 0.00 | 94 | 1017.5 |
| 20260506160700 | 18 | 96 | 0.0 | 0.0 | 0.00 | 0.00 | 0.00 | 93 | 1017.3 |
| 20260506160156 | 18 | 96 | 0.0 | 0.0 | 0.00 | 0.00 | 0.00 | 93 | 1017.4 |
| 20260506155655 | 18 | 93 | 0.0 | 0.0 | 0.00 | 0.00 | 0.00 | 93 | 1017.3 |
| 20260506155151 | 19 | 100 | 0.0 | 0.0 | 0.00 | 0.00 | 0.00 | 93 | 1017.6 |
| 20260506153253 | 19 | 97 | 0.0 | 0.0 | 0.00 | 0.00 | 0.00 | 92 | 1017.6 |
| 20260506152750 | 19 | 91 | 0.0 | 0.0 | 0.00 | 0.00 | 0.00 | 92 | 1017.8 |
| 20260506152248 | 20 | 62 | 0.0 | 1.6 | 0.00 | 0.00 | 0.00 | 92 | 1017.8 |
| 20260506151747 | 20 | 68 | 0.0 | 1.6 | 0.00 | 0.00 | 0.00 | 92 | 1017.7 |
| 20260506151243 | 20 | 106 | 0.0 | 0.0 | 0.00 | 0.00 | 0.00 | 92 | 1018.0 |
| 20260506150739 | 20 | 93 | 0.0 | 0.0 | 0.00 | 0.00 | 0.00 | 91 | 1017.9 |
| 20260506150237 | 20 | 81 | 0.0 | 1.6 | 0.00 | 0.00 | 0.00 | 91 | 1018.0 |
| 20260506145733 | 20 | 43 | 0.0 | 1.6 | 0.00 | 3.61 | 3.61 | 91 | 1017.9 |
| 20260506145230 | 20 | 81 | 0.0 | 1.6 | 0.00 | 3.61 | 3.61 | 91 | 1018.0 |
| 20260506144727 | 20 | 5 | 1.6 | 4.8 | 0.00 | 3.61 | 3.61 | 91 | 1017.8 |
| 20260506144224 | 20 | 338 | 1.6 | 4.8 | 0.00 | 3.61 | 3.61 | 91 | 1018.1 |
| 20260506143722 | 20 | 96 | 4.8 | 9.7 | 0.00 | 3.61 | 3.61 | 92 | 1017.9 |
| 20260506143219 | 20 | 56 | 1.6 | 6.4 | 0.00 | 3.61 | 3.61 | 92 | 1018.0 |
| 20260506142718 | 20 | 31 | 1.6 | 4.8 | 0.00 | 3.61 | 3.61 | 92 | 1017.9 |
| 20260506142215 | 20 | 359 | 3.2 | 4.8 | 0.00 | 3.61 | 3.61 | 92 | 1018.1 |
| 20260506141713 | 20 | 52 | 3.2 | 6.4 | 0.00 | 3.61 | 3.61 | 92 | 1018.0 |
| 20260506141211 | 20 | 87 | 0.0 | 1.6 | 0.00 | 3.61 | 3.61 | 92 | 1018.0 |
| 20260506140709 | 20 | 78 | 0.0 | 1.6 | 0.00 | 3.61 | 3.61 | 92 | 1018.0 |
| 20260506140205 | 20 | 82 | 0.0 | 1.6 | 0.00 | 3.61 | 3.61 | 92 | 1017.9 |
| 20260506135702 | 20 | 108 | 0.0 | 1.6 | 0.00 | 3.61 | 3.61 | 92 | 1017.9 |
| 20260506135158 | 20 | 72 | 0.0 | 3.2 | 0.00 | 3.61 | 3.61 | 92 | 1017.9 |
| 20260506134655 | 20 | 64 | 1.6 | 1.6 | 0.00 | 3.61 | 3.61 | 92 | 1017.8 |
| 20260506134151 | 20 | 45 | 0.0 | 1.6 | 0.00 | 3.61 | 3.61 | 92 | 1017.8 |
| 20260506133648 | 20 | 55 | 1.6 | 1.6 | 0.00 | 3.61 | 3.61 | 92 | 1018.0 |
| 20260506133145 | 20 | 80 | 0.0 | 1.6 | 0.00 | 3.61 | 3.61 | 92 | 1018.0 |
| 20260506132643 | 20 | 67 | 0.0 | 0.0 | 0.00 | 3.61 | 3.61 | 92 | 1018.1 |
| 20260506132139 | 20 | 353 | 3.2 | 3.2 | 0.00 | 3.61 | 3.61 | 92 | 1018.1 |
| 20260506131637 | 20 | 67 | 0.0 | 1.6 | 0.00 | 3.61 | 3.61 | 92 | 1018.1 |
| 20260506131133 | 20 | 66 | 0.0 | 3.2 | 0.00 | 3.61 | 3.61 | 93 | 1018.0 |
| 20260506130630 | 20 | 58 | 1.6 | 3.2 | 0.00 | 3.61 | 3.61 | 93 | 1018.3 |
| 20260506130127 | 19 | 70 | 1.6 | 3.2 | 0.00 | 3.61 | 3.61 | 93 | 1018.2 |
| 20260506125625 | 19 | 66 | 0.0 | 1.6 | 0.00 | 3.61 | 3.61 | 94 | 1018.4 |
| 20260506125123 | 19 | 64 | 0.0 | 1.6 | 0.00 | 3.61 | 3.61 | 94 | 1018.3 |
| 20260506124621 | 18 | 64 | 1.6 | 1.6 | 0.00 | 3.61 | 3.61 | 94 | 1018.3 |
| 20260506124118 | 18 | 93 | 0.0 | 0.0 | 0.00 | 3.61 | 3.61 | 94 | 1018.3 |
| 20260506123616 | 18 | 91 | 0.0 | 0.0 | 0.00 | 3.61 | 3.61 | 94 | 1018.3 |
| 20260506123114 | 19 | 96 | 0.0 | 0.0 | 0.00 | 3.61 | 3.61 | 93 | 1018.1 |
| 20260506122610 | 19 | 76 | 0.0 | 1.6 | 0.00 | 3.61 | 3.61 | 93 | 1018.1 |
| 20260506122108 | 19 | 102 | 0.0 | 0.0 | 0.00 | 3.61 | 3.61 | 93 | 1018.1 |
| 20260506121606 | 19 | 94 | 0.0 | 1.6 | 0.00 | 3.61 | 3.61 | 93 | 1018.1 |
| 20260506121102 | 19 | 100 | 0.0 | 0.0 | 0.00 | 3.61 | 3.61 | 93 | 1018.0 |
| 20260506120600 | 19 | 96 | 0.0 | 0.0 | 0.00 | 3.61 | 3.61 | 93 | 1017.9 |
| 20260506120057 | 19 | 99 | 0.0 | 0.0 | 0.00 | 3.61 | 3.61 | 93 | 1017.5 |
| 20260506115555 | 19 | 58 | 1.6 | 3.2 | 0.00 | 3.61 | 3.61 | 93 | 1017.5 |
| 20260506115053 | 19 | 80 | 0.0 | 1.6 | 0.00 | 3.61 | 3.61 | 93 | 1017.3 |
| 20260506114550 | 19 | 92 | 0.0 | 0.0 | 0.00 | 3.61 | 3.61 | 93 | 1017.2 |
| 20260506114048 | 19 | 95 | 0.0 | 0.0 | 0.00 | 3.61 | 3.61 | 93 | 1017.1 |
| 20260506113546 | 19 | 99 | 0.0 | 0.0 | 0.00 | 3.61 | 3.61 | 92 | 1016.7 |